K6RHL Weather Reports


time (UTC)temp
C
wind
direction
speed
KPH
gust
KPH
rain 1hr
cm
rain 24hr
cm
rain mn
cm
humidity
%
barometer
mb
20260507015551 21 246 3.2 12.9 0.00 0.00 0.00 64 1017.4
20260507015051 21 287 1.6 9.7 0.00 0.00 0.00 64 1017.3
20260507014602 21 286 4.8 9.7 0.00 0.00 0.00 64 1017.4
20260507014050 22 248 1.6 9.7 0.00 0.00 0.00 64 1017.4
20260507013550 22 241 1.6 9.7 0.00 0.00 0.00 63 1017.3
20260507013049 22 182 1.6 9.7 0.00 0.00 0.00 63 1017.4
20260507012549 22 177 1.6 9.7 0.00 0.00 0.00 63 1017.4
20260507012049 22 269 3.2 11.3 0.00 0.00 0.00 62 1017.4
20260507011559 22 286 3.2 12.9 0.00 0.00 0.00 62 1017.5
20260507011049 22 296 3.2 16.1 0.00 0.00 0.00 61 1017.6
20260507010548 23 303 3.2 9.7 0.00 0.00 0.00 61 1017.5
20260507010049 23 284 3.2 9.7 0.00 0.00 0.00 61 1017.4
20260507005549 23 281 0.0 12.9 0.00 0.00 0.00 61 1017.4
20260507005053 23 267 3.2 12.9 0.00 0.00 0.00 60 1017.4
20260507004548 23 271 1.6 9.7 0.00 0.00 0.00 60 1017.4
20260507004048 23 323 1.6 9.7 0.00 0.00 0.00 60 1017.5
20260507003549 23 280 1.6 12.9 0.00 0.00 0.00 61 1017.5
20260507003047 23 331 4.8 12.9 0.00 0.00 0.00 59 1017.5
20260507002548 23 291 1.6 11.3 0.00 0.00 0.00 60 1017.5
20260507002049 23 283 3.2 16.1 0.00 0.00 0.00 60 1017.4
20260507001602 23 301 4.8 16.1 0.00 0.00 0.00 60 1017.4
20260507001047 23 299 3.2 14.5 0.00 0.00 0.00 59 1017.5
20260507000546 23 325 4.8 14.5 0.00 0.00 0.00 59 1017.4
20260507000051 23 315 6.4 14.5 0.00 0.00 0.00 59 1017.5
20260506235546 23 315 3.2 14.5 0.00 0.00 0.00 59 1017.5
20260506235045 23 306 6.4 14.5 0.00 0.00 0.00 58 1017.6
20260506234547 24 31 4.8 12.9 0.00 0.00 0.00 57 1017.6
20260506234044 23 262 3.2 12.9 0.00 0.00 0.00 57 1017.6
20260506233544 24 323 4.8 12.9 0.00 0.00 0.00 55 1017.7
20260506233043 24 295 0.0 12.9 0.00 0.00 0.00 56 1017.7
20260506232542 24 278 3.2 14.5 0.00 0.00 0.00 58 1017.7
20260506231541 24 280 0.0 9.7 0.00 0.00 0.00 58 1017.7
20260506231040 23 265 1.6 9.7 0.00 0.00 0.00 59 1017.8
20260506230541 23 315 3.2 12.9 0.00 0.00 0.00 57 1017.8
20260506230039 23 310 4.8 12.9 0.00 0.00 0.00 57 1017.8
20260506225540 23 53 1.6 14.5 0.00 0.00 0.00 57 1018.0
20260506225038 23 300 3.2 14.5 0.00 0.00 0.00 57 1018.1
20260506224538 23 299 1.6 14.5 0.00 0.00 0.00 57 1018.2
20260506224036 23 328 6.4 14.5 0.00 0.00 0.00 57 1018.2
20260506223535 23 338 4.8 17.7 0.00 0.00 0.00 55 1018.3
20260506223036 23 286 8.0 17.7 0.00 0.00 0.00 57 1018.3
20260506222535 23 206 0.0 12.9 0.00 0.00 0.00 56 1018.3
20260506222034 23 265 0.0 16.1 0.00 0.00 0.00 56 1018.4
20260506221533 23 321 6.4 16.1 0.00 0.00 0.00 55 1018.5
20260506221033 23 290 4.8 11.3 0.00 0.00 0.00 55 1018.7
20260506220533 23 288 1.6 6.4 0.00 0.00 0.00 55 1018.6
20260506220033 23 302 0.0 6.4 0.00 0.00 0.00 55 1018.7
20260506215532 23 329 0.0 3.2 0.00 0.00 0.00 55 1018.8
20260506215031 23 294 0.0 0.0 0.00 0.00 0.00 56 1018.8
20260506214531 23 296 0.0 6.4 0.00 0.00 0.00 58 1018.9
20260506214030 23 316 0.0 8.0 0.00 0.00 0.00 58 1019.0
20260506213532 22 344 1.6 8.0 0.00 0.00 0.00 58 1019.0
20260506213030 22 35 4.8 16.1 0.00 0.00 0.00 57 1019.1
20260506212534 23 9 1.6 17.7 0.00 0.00 0.00 56 1019.1
20260506212131 23 26 3.2 17.7 0.00 0.00 0.00 57 1019.1
20260506211529 23 314 1.6 12.9 0.00 0.00 0.00 55 1019.1
20260506211029 23 26 4.8 12.9 0.00 0.00 0.00 56 1019.1
20260506210531 23 304 1.6 16.1 0.00 0.00 0.00 55 1019.1
20260506210030 23 300 4.8 16.1 0.00 0.00 0.00 54 1019.1
20260506205527 23 252 0.0 1.6 0.00 0.00 0.00 55 1019.1
20260506205028 23 252 0.0 8.0 0.00 0.00 0.00 55 1019.2
20260506204526 23 302 0.0 6.4 0.00 0.00 0.00 55 1019.3
20260506204027 22 304 0.0 11.3 0.00 0.00 0.00 56 1019.3
20260506203524 22 308 0.0 11.3 0.00 0.00 0.00 55 1019.4
20260506203032 22 5 3.2 11.3 0.00 0.00 0.00 57 1019.5
20260506202523 22 348 0.0 9.7 0.00 0.00 0.00 57 1019.5
20260506202022 22 302 3.2 11.3 0.00 0.00 0.00 57 1019.6
20260506201522 22 337 3.2 11.3 0.00 0.00 0.00 57 1019.7
20260506201019 22 313 3.2 11.3 0.00 0.00 0.00 57 1019.7
20260506200519 22 131 1.6 6.4 0.00 0.00 0.00 59 1019.8
20260506200019 22 290 0.0 11.3 0.00 0.00 0.00 60 1019.9
20260506195517 21 271 3.2 12.9 0.00 0.00 0.00 58 1019.9
20260506195017 21 328 1.6 12.9 0.00 0.00 0.00 61 1020.0
20260506194517 21 303 0.0 16.1 0.00 0.00 0.00 61 1020.0
20260506194017 21 336 4.8 14.5 0.00 0.00 0.00 62 1020.0
20260506193517 21 332 1.6 12.9 0.00 0.00 0.00 61 1020.1
20260506193015 21 316 1.6 12.9 0.00 0.00 0.00 61 1020.1
20260506192515 21 338 3.2 14.5 0.00 0.00 0.00 61 1020.3
20260506192014 21 350 1.6 14.5 0.00 0.00 0.00 61 1020.3
20260506191517 21 15 1.6 9.7 0.00 0.00 0.00 61 1020.3
20260506191014 21 45 1.6 12.9 0.00 0.00 0.00 61 1020.3
20260506190513 21 317 6.4 12.9 0.00 0.00 0.00 63 1020.4
20260506190012 21 323 0.0 6.4 0.00 0.00 0.00 65 1020.3
20260506185510 21 360 1.6 9.7 0.00 0.00 0.00 64 1020.4
20260506185011 21 44 0.0 11.3 0.00 0.00 0.00 66 1020.4
20260506184509 21 34 4.8 11.3 0.00 0.00 0.00 64 1020.5
20260506184009 21 318 3.2 11.3 0.00 0.00 0.00 64 1020.5
20260506183508 20 322 0.0 9.7 0.00 0.00 0.00 66 1020.4
20260506183009 20 317 0.0 9.7 0.00 0.00 0.00 66 1020.5
20260506182505 20 324 1.6 11.3 0.00 0.00 0.00 66 1020.6
20260506182007 20 313 1.6 11.3 0.00 0.00 0.00 68 1020.5
20260506181504 20 337 0.0 8.0 0.00 0.00 0.00 68 1020.5
20260506181003 20 346 1.6 9.7 0.00 0.00 0.00 68 1020.6
20260506180503 20 334 1.6 9.7 0.00 0.00 0.00 68 1020.5
20260506180003 20 305 1.6 6.4 0.00 0.00 0.00 68 1020.5
20260506175502 20 307 0.0 0.0 0.00 0.00 0.00 68 1020.5
20260506175001 19 307 0.0 1.6 0.00 0.00 0.00 68 1020.5
20260506174610 19 311 0.0 4.8 0.00 0.00 0.00 70 1020.5
20260506174058 19 318 0.0 6.4 0.00 0.00 0.00 70 1020.6
20260506173558 18 317 0.0 6.4 0.00 0.00 0.00 71 1020.6
20260506173058 18 305 1.6 6.4 0.00 0.00 0.00 72 1020.7
20260506172553 18 329 0.0 4.8 0.00 0.00 0.00 75 1020.6
20260506172053 18 315 0.0 3.2 0.00 0.00 0.00 73 1020.7
20260506171053 18 315 0.0 4.8 0.00 0.00 0.00 72 1020.7
20260506170553 18 315 0.0 6.4 0.00 0.00 0.00 73 1020.7
20260506170052 17 323 3.2 6.4 0.00 0.00 0.00 73 1020.7
20260506165550 17 288 0.0 6.4 0.00 0.00 0.00 73 1020.7
20260506165049 17 269 0.0 6.4 0.00 0.00 0.00 75 1020.7
20260506164553 17 303 0.0 3.2 0.00 0.00 0.00 76 1020.7
20260506164045 17 312 0.0 4.8 0.00 0.00 0.00 77 1020.7
20260506163545 16 327 0.0 6.4 0.00 0.00 0.00 76 1020.7
20260506163057 16 280 0.0 4.8 0.00 0.00 0.00 78 1020.8
20260506162542 16 303 1.6 6.4 0.00 0.00 0.00 78 1020.8
20260506161044 16 338 0.0 8.0 0.00 0.00 0.00 79 1020.8
20260506160539 15 339 0.0 8.0 0.00 0.00 0.00 80 1020.8
20260506160038 15 280 1.6 6.4 0.00 0.00 0.00 81 1020.8
20260506155536 15 245 0.0 0.0 0.00 0.00 0.00 81 1020.9
20260506155038 15 246 0.0 0.0 0.00 0.00 0.00 83 1020.9
20260506154538 15 246 0.0 0.0 0.00 0.00 0.00 82 1020.9
20260506154034 15 246 0.0 1.6 0.00 0.00 0.00 83 1020.9
20260506153534 15 246 0.0 3.2 0.00 0.00 0.00 82 1020.9
20260506153034 15 246 0.0 3.2 0.00 0.00 0.00 82 1020.9
20260506152533 15 246 0.0 4.8 0.00 0.00 0.00 84 1020.9
20260506152031 14 246 0.0 4.8 0.00 0.00 0.00 85 1020.9
20260506151538 14 306 0.0 6.4 0.00 0.00 0.00 85 1020.8
20260506151029 14 309 0.0 6.4 0.00 0.00 0.00 85 1020.8
20260506150529 13 273 0.0 3.2 0.00 0.00 0.00 85 1020.8
20260506150028 13 273 0.0 3.2 0.00 0.00 0.00 86 1020.8
20260506145528 13 275 0.0 3.2 0.00 0.00 0.00 87 1020.8
20260506145025 13 277 0.0 3.2 0.00 0.00 0.00 88 1020.8
20260506144525 13 277 0.0 3.2 0.00 0.00 0.00 88 1020.8
20260506144022 13 263 0.0 0.0 0.00 0.00 0.00 89 1020.7
20260506143522 12 263 0.0 0.0 0.00 0.00 0.00 89 1020.7
20260506143021 12 263 0.0 0.0 0.00 0.00 0.00 89 1020.7
20260506142522 12 263 0.0 0.0 0.00 0.00 0.00 89 1020.6
20260506142024 12 263 0.0 0.0 0.00 0.00 0.00 89 1020.6
20260506141519 12 263 0.0 0.0 0.00 0.00 0.00 89 1020.5
20260506141023 12 263 0.0 0.0 0.00 0.00 0.00 89 1020.4
20260506140518 12 263 0.0 0.0 0.00 0.00 0.00 89 1020.4
20260506140025 12 263 0.0 0.0 0.00 0.00 0.00 89 1020.3
20260506135518 12 263 0.0 0.0 0.00 0.00 0.00 89 1020.3
20260506135020 12 264 0.0 0.0 0.00 0.00 0.00 89 1020.2
20260506134517 12 264 0.0 0.0 0.00 0.00 0.00 89 1020.2
20260506134017 12 264 0.0 0.0 0.00 0.00 0.00 89 1020.3
20260506133516 12 264 0.0 0.0 0.00 0.00 0.00 88 1020.3
20260506133017 12 264 0.0 0.0 0.00 0.00 0.00 88 1020.2
20260506132518 12 264 0.0 0.0 0.00 0.00 0.00 88 1020.2
20260506132014 12 264 0.0 0.0 0.00 0.00 0.00 88 1020.1
20260506131519 12 264 0.0 0.0 0.00 0.00 0.00 88 1020.1
20260506131015 12 264 0.0 0.0 0.00 0.00 0.00 87 1020.0
20260506130516 12 264 0.0 0.0 0.00 0.00 0.00 87 1020.0
20260506130013 12 264 0.0 0.0 0.00 0.00 0.00 87 1020.0
20260506125512 12 264 0.0 0.0 0.00 0.00 0.00 87 1020.0
20260506125012 12 264 0.0 0.0 0.00 0.00 0.00 87 1019.9
20260506124511 12 264 0.0 0.0 0.00 0.00 0.00 87 1019.9
20260506124011 12 264 0.0 0.0 0.00 0.00 0.00 87 1019.9
20260506123515 12 264 0.0 0.0 0.00 0.00 0.00 87 1019.9
20260506123011 12 264 0.0 0.0 0.00 0.00 0.00 86 1019.8
20260506122510 12 264 0.0 0.0 0.00 0.00 0.00 86 1019.9
20260506122009 12 264 0.0 0.0 0.00 0.00 0.00 87 1019.9
20260506121509 12 264 0.0 0.0 0.00 0.00 0.00 87 1019.9
20260506121008 12 264 0.0 0.0 0.00 0.00 0.00 87 1019.8
20260506120508 12 264 0.0 0.0 0.00 0.00 0.00 86 1019.8
20260506120012 12 264 0.0 0.0 0.00 0.00 0.00 87 1019.7
20260506115508 12 264 0.0 0.0 0.00 0.00 0.00 87 1019.7
20260506115008 12 264 0.0 0.0 0.00 0.00 0.00 87 1019.7
20260506114508 12 264 0.0 0.0 0.00 0.00 0.00 87 1019.7
20260506114006 12 264 0.0 0.0 0.00 0.00 0.00 86 1019.7
20260506113506 12 264 0.0 0.0 0.00 0.00 0.00 86 1019.7
20260506113006 12 264 0.0 0.0 0.00 0.00 0.00 86 1019.6
20260506112509 12 264 0.0 0.0 0.00 0.00 0.00 86 1019.5
20260506112004 12 264 0.0 0.0 0.00 0.00 0.00 86 1019.5
20260506111504 12 264 0.0 0.0 0.00 0.00 0.00 86 1019.4
20260506110503 12 264 0.0 0.0 0.00 0.00 0.00 86 1019.3
20260506110004 12 264 0.0 0.0 0.00 0.00 0.00 86 1019.3
20260506105501 12 264 0.0 0.0 0.00 0.00 0.00 86 1019.3
20260506105004 12 266 0.0 0.0 0.00 0.00 0.00 86 1019.3
20260506104502 12 266 0.0 0.0 0.00 0.00 0.00 86 1019.3
20260506104001 12 266 0.0 0.0 0.00 0.00 0.00 86 1019.3
20260506103501 12 267 0.0 0.0 0.00 0.00 0.00 86 1019.3
20260506103002 12 267 0.0 0.0 0.00 0.00 0.00 86 1019.3
20260506102600 12 267 0.0 0.0 0.00 0.00 0.00 86 1019.2
20260506102100 12 267 0.0 0.0 0.00 0.00 0.00 86 1019.1
20260506101634 12 267 0.0 0.0 0.00 0.00 0.00 86 1019.1
20260506101100 12 267 0.0 0.0 0.00 0.00 0.00 86 1019.1
20260506100559 12 267 0.0 0.0 0.00 0.00 0.00 86 1019.0
20260506100100 12 267 0.0 3.2 0.00 0.00 0.00 86 1019.1
20260506095559 12 267 0.0 3.2 0.00 0.03 0.00 86 1019.1
20260506095100 12 279 0.0 0.0 0.00 0.03 0.00 86 1019.1
20260506094601 12 279 0.0 1.6 0.00 0.03 0.00 86 1019.1
20260506094058 12 279 0.0 0.0 0.00 0.03 0.00 86 1019.1
20260506093558 12 279 0.0 0.0 0.00 0.03 0.00 86 1019.0
20260506093101 12 279 0.0 0.0 0.00 0.03 0.00 87 1019.1
20260506092558 12 279 0.0 1.6 0.00 0.03 0.00 87 1019.1
20260506092058 12 279 0.0 4.8 0.00 0.03 0.00 87 1019.2
20260506091557 12 279 0.0 4.8 0.00 0.03 0.00 87 1019.2
20260506091059 12 211 0.0 0.0 0.00 0.03 0.00 87 1019.2
20260506090557 12 210 0.0 0.0 0.00 0.03 0.00 87 1019.2
20260506090110 12 210 0.0 0.0 0.00 0.03 0.00 87 1019.3
20260506085557 12 210 0.0 0.0 0.00 0.10 0.00 87 1019.2
20260506085055 12 210 0.0 0.0 0.00 0.10 0.00 87 1019.2
20260506084623 12 210 0.0 0.0 0.00 0.10 0.00 87 1019.2
20260506084056 12 210 0.0 0.0 0.00 0.10 0.00 87 1019.2
20260506083556 12 210 0.0 0.0 0.00 0.10 0.00 86 1019.2
20260506083057 12 210 0.0 0.0 0.00 0.10 0.00 86 1019.2
20260506082555 12 210 0.0 0.0 0.00 0.10 0.00 87 1019.1
20260506082054 12 200 0.0 0.0 0.00 0.10 0.00 86 1019.2
20260506081610 12 200 0.0 0.0 0.00 0.10 0.00 87 1019.1
20260506081054 12 200 0.0 0.0 0.00 0.10 0.00 87 1019.1
20260506080553 12 200 0.0 0.0 0.00 0.10 0.00 87 1019.1
20260506073051 12 207 0.0 4.8 0.00 0.28 0.00 86 1018.9
20260506072550 12 198 0.0 4.8 0.00 0.28 0.00 86 1018.9
20260506072050 12 261 0.0 4.8 0.00 0.28 0.00 86 1018.9
20260506071548 12 261 0.0 4.8 0.00 0.28 0.00 86 1018.9
20260506071047 12 261 0.0 3.2 0.00 0.28 0.00 86 1018.7
20260506070547 12 262 0.0 3.2 0.00 0.28 0.00 87 1018.7
20260506062044 12 274 0.0 6.4 0.00 0.33 0.28 86 1018.4
20260506061548 12 257 1.6 6.4 0.00 0.33 0.28 86 1018.3
20260506061043 12 261 0.0 6.4 0.00 0.33 0.28 86 1018.2
20260506060543 12 223 0.0 8.0 0.00 0.33 0.28 86 1018.2
20260506051037 13 219 1.6 11.3 0.00 0.43 0.28 87 1017.8
20260506050537 13 261 1.6 9.7 0.00 0.43 0.28 88 1017.8
20260506045036 13 255 0.0 9.7 0.00 0.58 0.28 88 1017.7
20260506044542 13 279 1.6 9.7 0.00 0.58 0.28 88 1017.5
20260506044036 13 259 1.6 6.4 0.00 0.58 0.28 87 1017.5
20260506043536 13 242 0.0 4.8 0.00 0.58 0.28 87 1017.5
20260506043034 13 286 0.0 11.3 0.00 0.58 0.28 87 1017.4
20260506042534 13 264 1.6 11.3 0.00 0.58 0.28 87 1017.3
20260506042033 13 220 1.6 9.7 0.00 0.58 0.28 87 1017.2
20260506041549 13 220 3.2 9.7 0.00 0.58 0.28 87 1017.2
20260506041032 13 223 1.6 8.0 0.00 0.58 0.28 86 1017.2
20260506040532 13 248 1.6 8.0 0.00 0.58 0.28 86 1017.2
20260506040033 13 267 1.6 9.7 0.00 0.58 0.28 86 1017.2
20260506035533 13 222 0.0 12.9 0.00 0.58 0.28 86 1017.1
20260506035031 13 90 3.2 12.9 0.00 0.58 0.28 86 1017.1
20260506034546 13 224 1.6 9.7 0.00 0.58 0.28 86 1017.0
20260506034031 13 205 0.0 8.0 0.00 0.58 0.28 85 1016.9
20260506033529 13 304 1.6 8.0 0.00 0.58 0.28 85 1016.9
20260506033028 13 183 0.0 8.0 0.00 0.58 0.28 85 1016.8
20260506032528 13 305 1.6 8.0 0.00 0.58 0.28 85 1016.8
20260506032027 13 217 0.0 8.0 0.00 0.58 0.28 84 1016.6
20260506031526 13 233 0.0 6.4 0.00 0.58 0.28 84 1016.5
20260506031025 13 279 1.6 8.0 0.00 0.58 0.28 84 1016.4
20260506030026 14 282 1.6 9.7 0.00 0.58 0.28 84 1016.3
20260506025529 14 211 1.6 9.7 0.00 0.58 0.28 83 1016.3
20260506025024 14 272 1.6 9.7 0.00 0.58 0.28 83 1016.3
20260506024528 14 259 0.0 6.4 0.00 0.58 0.28 82 1016.2
20260506024023 14 263 1.6 6.4 0.00 0.58 0.28 82 1016.1
20260506023526 14 282 1.6 6.4 0.00 0.58 0.28 82 1016.0
20260506023023 15 219 1.6 6.4 0.00 0.58 0.28 81 1016.2
20260506022523 15 283 0.0 6.4 0.00 0.58 0.28 81 1016.1
20260506022023 15 236 0.0 4.8 0.00 0.58 0.28 80 1016.1
20260506021523 15 238 1.6 4.8 0.00 0.58 0.28 80 1016.1
20260506021021 15 244 0.0 4.8 0.00 0.58 0.28 79 1016.0
20260506020622 15 230 0.0 3.2 0.00 0.58 0.28 79 1015.9
20260506020022 15 244 0.0 8.0 0.00 0.58 0.28 78 1015.8